Location: Unnamed
(54.5186°N, 36.2255°E)
Time: 16:49:11
(UTC+03:00)

ISS - Pass Details

Date: 19 February 2026
Orbit: 416 x 427 km, 51.6° (Epoch: 5 March)

Event Time Altitude Azimuth Distance (km) Brightness Sun altitude
Exits shadow 06:09:39 20° 219° (SW) 1,017 -2.2 -14.9°
Maximum altitude 06:11:26 37° 163° (SSE) 664 -2.6 -14.6°
Drops below altitude 10° 06:14:34 10° 94° (E) 1,495 0.5 -14.2°
Sets 06:16:45 0° 86° (E) 2,360 2.1 -13.8°
